Time,TemperatureF,DewpointF,PressureIn,WindDirection,WindDirectionDegrees,WindSpeedMPH,WindSpeedGustMPH,Humidity,HourlyPrecipIn,Conditions,Clouds,dailyrainin,SoftwareType,DateUTC
2013-02-07 00:00:00,38.8,19.8,29.12,South,179,0.0,0.0,46,0.00,,,0.00,VWS V14.01,2013-02-07 06:00:00,
2013-02-07 00:05:00,38.8,19.8,29.12,South,179,0.0,0.0,46,0.00,,,0.00,VWS V14.01,2013-02-07 06:05:00,
2013-02-07 00:10:00,38.5,19.5,29.12,South,179,0.0,0.0,46,0.00,,,0.00,VWS V14.01,2013-02-07 06:10:00,
2013-02-07 00:15:00,38.3,19.4,29.12,South,179,0.0,0.0,46,0.00,,,0.00,VWS V14.01,2013-02-07 06:15:00,
2013-02-07 00:20:00,38.3,19.4,29.12,South,179,0.0,0.0,46,0.00,,,0.00,VWS V14.01,2013-02-07 06:20:00,
2013-02-07 00:25:00,38.3,19.4,29.12,South,179,0.0,0.0,46,0.00,,,0.00,VWS V14.01,2013-02-07 06:25:00,
2013-02-07 00:30:00,38.1,19.7,29.12,South,179,0.0,0.0,47,0.00,,,0.00,VWS V14.01,2013-02-07 06:30:00,
2013-02-07 00:35:00,38.1,19.7,29.12,South,179,0.0,0.0,47,0.00,,,0.00,VWS V14.01,2013-02-07 06:35:00,
2013-02-07 00:40:00,38.1,19.7,29.12,South,179,0.0,0.0,47,0.00,,,0.00,VWS V14.01,2013-02-07 06:40:00,
2013-02-07 00:45:00,38.3,20.4,29.12,South,178,0.0,0.0,48,0.00,,,0.00,VWS V14.01,2013-02-07 06:45:00,
2013-02-07 00:50:00,38.5,20.5,29.09,South,178,0.0,0.0,48,0.00,,,0.00,VWS V14.01,2013-02-07 06:50:00,
2013-02-07 00:55:00,38.8,21.3,29.09,South,178,3.1,3.1,49,0.00,,,0.00,VWS V14.01,2013-02-07 06:55:00,
2013-02-07 01:00:00,38.8,21.3,29.09,South,179,0.0,0.0,49,0.00,,,0.00,VWS V14.01,2013-02-07 07:00:00,
2013-02-07 01:05:00,39.6,21.5,29.09,South,179,4.0,4.0,48,0.00,,,0.00,VWS V14.01,2013-02-07 07:05:00,
2013-02-07 01:10:00,39.6,21.5,29.09,South,187,2.7,2.7,48,0.00,,,0.00,VWS V14.01,2013-02-07 07:10:00,
2013-02-07 01:15:00,39.7,21.2,29.09,South,170,0.0,2.7,47,0.00,,,0.00,VWS V14.01,2013-02-07 07:15:00,
2013-02-07 01:20:00,39.7,20.7,29.09,South,182,2.2,2.2,46,0.00,,,0.00,VWS V14.01,2013-02-07 07:20:00,
2013-02-07 01:25:00,39.7,20.7,29.09,South,171,2.2,2.2,46,0.00,,,0.00,VWS V14.01,2013-02-07 07:25:00,
2013-02-07 01:30:00,39.7,20.7,29.09,South,172,2.7,2.7,46,0.00,,,0.00,VWS V14.01,2013-02-07 07:30:00,
2013-02-07 01:35:00,39.7,21.2,29.09,South,175,3.1,3.1,47,0.00,,,0.00,VWS V14.01,2013-02-07 07:35:00,
2013-02-07 01:40:00,39.7,21.2,29.09,South,171,0.0,2.7,47,0.00,,,0.00,VWS V14.01,2013-02-07 07:40:00,
2013-02-07 01:45:00,39.7,21.2,29.09,South,171,0.0,0.0,47,0.00,,,0.00,VWS V14.01,2013-02-07 07:45:00,
2013-02-07 01:50:00,39.6,21.5,29.09,South,177,2.7,2.7,48,0.00,,,0.00,VWS V14.01,2013-02-07 07:50:00,
2013-02-07 01:55:00,39.4,21.8,29.09,South,170,3.1,3.1,49,0.00,,,0.00,VWS V14.01,2013-02-07 07:55:00,
2013-02-07 02:00:00,39.4,21.8,29.09,South,183,4.0,4.0,49,0.00,,,0.00,VWS V14.01,2013-02-07 08:00:00,
2013-02-07 02:05:00,39.2,21.7,29.09,South,183,0.0,0.0,49,0.00,,,0.00,VWS V14.01,2013-02-07 08:05:00,
2013-02-07 02:10:00,39.2,21.7,29.09,South,183,0.0,0.0,49,0.00,,,0.00,VWS V14.01,2013-02-07 08:10:00,
2013-02-07 02:15:00,38.8,21.8,29.09,South,183,0.0,0.0,50,0.00,,,0.00,VWS V14.01,2013-02-07 08:15:00,
2013-02-07 02:20:00,38.8,21.8,29.09,South,171,0.0,0.0,50,0.00,,,0.00,VWS V14.01,2013-02-07 08:20:00,
2013-02-07 02:25:00,38.8,21.8,29.09,South,171,0.0,0.0,50,0.00,,,0.00,VWS V14.01,2013-02-07 08:25:00,
2013-02-07 02:30:00,38.8,21.8,29.09,South,173,0.0,0.0,50,0.00,,,0.00,VWS V14.01,2013-02-07 08:30:00,
2013-02-07 02:35:00,38.8,21.8,29.09,South,173,0.0,0.0,50,0.00,,,0.00,VWS V14.01,2013-02-07 08:35:00,
2013-02-07 02:40:00,38.8,21.8,29.09,South,177,0.0,0.0,50,0.00,,,0.00,VWS V14.01,2013-02-07 08:40:00,
2013-02-07 02:45:00,38.8,21.8,29.09,South,177,0.0,0.0,50,0.00,,,0.00,VWS V14.01,2013-02-07 08:45:00,
2013-02-07 02:50:00,38.8,21.8,29.09,South,177,0.0,0.0,50,0.00,,,0.00,VWS V14.01,2013-02-07 08:50:00,
2013-02-07 02:55:00,38.8,21.8,29.09,South,177,0.0,0.0,50,0.00,,,0.00,VWS V14.01,2013-02-07 08:55:00,
2013-02-07 03:00:00,38.8,21.8,29.09,South,177,0.0,0.0,50,0.00,,,0.00,VWS V14.01,2013-02-07 09:00:00,
2013-02-07 03:05:00,38.8,21.8,29.09,South,178,0.0,0.0,50,0.00,,,0.00,VWS V14.01,2013-02-07 09:05:00,
2013-02-07 03:10:00,38.8,21.8,29.09,South,177,0.0,0.0,50,0.00,,,0.00,VWS V14.01,2013-02-07 09:10:00,
2013-02-07 03:15:00,38.8,21.8,29.09,South,177,0.0,0.0,50,0.00,,,0.00,VWS V14.01,2013-02-07 09:15:00,
2013-02-07 03:20:00,38.8,21.8,29.09,South,177,0.0,0.0,50,0.00,,,0.00,VWS V14.01,2013-02-07 09:20:00,
2013-02-07 03:25:00,38.8,21.8,29.09,South,177,0.0,0.0,50,0.00,,,0.00,VWS V14.01,2013-02-07 09:25:00,
2013-02-07 03:30:00,38.8,21.8,29.09,South,177,0.0,0.0,50,0.00,,,0.00,VWS V14.01,2013-02-07 09:30:00,
2013-02-07 03:35:00,38.8,21.8,29.09,South,177,0.0,0.0,50,0.00,,,0.00,VWS V14.01,2013-02-07 09:35:00,
2013-02-07 03:40:00,38.8,21.8,29.09,South,177,0.0,0.0,50,0.00,,,0.00,VWS V14.01,2013-02-07 09:40:00,
2013-02-07 03:45:00,38.8,21.8,29.09,South,177,0.0,0.0,50,0.00,,,0.00,VWS V14.01,2013-02-07 09:45:00,
2013-02-07 03:50:00,38.8,21.8,29.09,South,177,0.0,0.0,50,0.00,,,0.00,VWS V14.01,2013-02-07 09:50:00,
2013-02-07 03:55:00,38.8,21.8,29.09,South,177,0.0,0.0,50,0.00,,,0.00,VWS V14.01,2013-02-07 09:55:00,
2013-02-07 04:00:00,38.8,21.8,29.09,South,177,0.0,0.0,50,0.00,,,0.00,VWS V14.01,2013-02-07 10:00:00,
2013-02-07 04:05:00,38.8,21.8,29.09,South,177,0.0,0.0,50,0.00,,,0.00,VWS V14.01,2013-02-07 10:05:00,
2013-02-07 04:10:00,38.8,21.8,29.09,South,177,0.0,0.0,50,0.00,,,0.00,VWS V14.01,2013-02-07 10:10:00,
2013-02-07 04:15:00,38.8,21.8,29.09,South,177,0.0,0.0,50,0.00,,,0.00,VWS V14.01,2013-02-07 10:15:00,
2013-02-07 04:20:00,38.8,21.8,29.09,South,177,0.0,0.0,50,0.00,,,0.00,VWS V14.01,2013-02-07 10:20:00,
2013-02-07 04:25:00,38.8,21.8,29.09,South,177,0.0,0.0,50,0.00,,,0.00,VWS V14.01,2013-02-07 10:25:00,
2013-02-07 04:30:00,38.8,21.8,29.09,South,177,0.0,0.0,50,0.00,,,0.00,VWS V14.01,2013-02-07 10:30:00,
2013-02-07 04:35:00,38.8,21.8,29.09,South,177,0.0,0.0,50,0.00,,,0.00,VWS V14.01,2013-02-07 10:35:00,
2013-02-07 04:40:00,38.8,21.8,29.09,South,177,0.0,0.0,50,0.00,,,0.00,VWS V14.01,2013-02-07 10:40:00,
2013-02-07 04:45:00,38.8,21.8,29.09,South,177,0.0,0.0,50,0.00,,,0.00,VWS V14.01,2013-02-07 10:45:00,
2013-02-07 04:50:00,38.8,21.8,29.09,South,177,0.0,0.0,50,0.00,,,0.00,VWS V14.01,2013-02-07 10:50:00,
2013-02-07 04:55:00,38.8,21.8,29.09,South,177,0.0,0.0,50,0.00,,,0.00,VWS V14.01,2013-02-07 10:55:00,
2013-02-07 05:00:00,38.8,21.8,29.09,South,177,0.0,0.0,50,0.00,,,0.00,VWS V14.01,2013-02-07 11:00:00,
2013-02-07 05:05:00,38.8,21.8,29.09,South,177,0.0,0.0,50,0.00,,,0.00,VWS V14.01,2013-02-07 11:05:00,
2013-02-07 05:10:00,38.8,21.8,29.09,South,177,0.0,0.0,50,0.00,,,0.00,VWS V14.01,2013-02-07 11:10:00,
2013-02-07 05:15:00,38.8,21.8,29.09,South,177,0.0,0.0,50,0.00,,,0.00,VWS V14.01,2013-02-07 11:15:00,
2013-02-07 05:20:00,38.8,21.8,29.09,South,177,0.0,0.0,50,0.00,,,0.00,VWS V14.01,2013-02-07 11:20:00,
2013-02-07 05:25:00,38.8,21.8,29.09,South,177,0.0,0.0,50,0.00,,,0.00,VWS V14.01,2013-02-07 11:25:00,
2013-02-07 05:30:00,38.8,21.8,29.09,South,177,0.0,0.0,50,0.00,,,0.00,VWS V14.01,2013-02-07 11:30:00,
2013-02-07 05:35:00,38.8,21.8,29.09,South,177,0.0,0.0,50,0.00,,,0.00,VWS V14.01,2013-02-07 11:35:00,
2013-02-07 05:40:00,36.1,23.2,29.09,South,177,0.0,0.0,59,0.00,,,0.00,VWS V14.01,2013-02-07 11:40:00,
2013-02-07 05:45:00,36.1,23.2,29.09,South,177,0.0,0.0,59,0.00,,,0.00,VWS V14.01,2013-02-07 11:45:00,
2013-02-07 05:50:00,36.0,23.0,29.09,South,177,0.0,0.0,59,0.00,,,0.00,VWS V14.01,2013-02-07 11:50:00,
2013-02-07 05:55:00,36.0,23.0,29.09,South,177,0.0,0.0,59,0.00,,,0.00,VWS V14.01,2013-02-07 11:55:00,
2013-02-07 06:00:00,35.8,22.9,29.09,South,177,0.0,0.0,59,0.00,,,0.00,VWS V14.01,2013-02-07 12:00:00,
2013-02-07 06:05:00,35.8,23.3,29.09,South,177,0.0,0.0,60,0.00,,,0.00,VWS V14.01,2013-02-07 12:05:00,
2013-02-07 06:10:00,36.0,23.4,29.09,South,177,0.0,0.0,60,0.00,,,0.00,VWS V14.01,2013-02-07 12:10:00,
2013-02-07 06:15:00,36.1,23.6,29.09,South,177,0.0,0.0,60,0.00,,,0.00,VWS V14.01,2013-02-07 12:15:00,
2013-02-07 06:20:00,36.1,23.6,29.09,South,177,0.0,0.0,60,0.00,,,0.00,VWS V14.01,2013-02-07 12:20:00,
2013-02-07 06:25:00,36.1,23.6,29.09,South,177,0.0,0.0,60,0.00,,,0.00,VWS V14.01,2013-02-07 12:25:00,
2013-02-07 06:30:00,36.1,23.6,29.09,South,177,0.0,0.0,60,0.00,,,0.00,VWS V14.01,2013-02-07 12:30:00,
2013-02-07 06:35:00,36.3,24.2,29.09,South,177,0.0,0.0,61,0.00,,,0.00,VWS V14.01,2013-02-07 12:35:00,
2013-02-07 06:40:00,36.1,24.0,29.09,South,177,0.0,0.0,61,0.00,,,0.00,VWS V14.01,2013-02-07 12:40:00,
2013-02-07 06:45:00,36.1,24.0,29.09,South,177,0.0,0.0,61,0.00,,,0.00,VWS V14.01,2013-02-07 12:45:00,
2013-02-07 06:50:00,36.5,24.7,29.09,South,177,0.0,0.0,62,0.00,,,0.00,VWS V14.01,2013-02-07 12:50:00,
2013-02-07 06:55:00,36.5,24.7,29.09,South,177,0.0,0.0,62,0.00,,,0.00,VWS V14.01,2013-02-07 12:55:00,
2013-02-07 07:00:00,36.5,24.7,29.09,South,177,0.0,0.0,62,0.00,,,0.00,VWS V14.01,2013-02-07 13:00:00,
2013-02-07 07:05:00,36.5,24.7,29.09,South,177,0.0,0.0,62,0.00,,,0.00,VWS V14.01,2013-02-07 13:05:00,
2013-02-07 07:10:00,36.5,24.7,29.09,South,177,0.0,0.0,62,0.00,,,0.00,VWS V14.01,2013-02-07 13:10:00,
2013-02-07 07:15:00,36.7,24.9,29.09,South,177,0.0,0.0,62,0.00,,,0.00,VWS V14.01,2013-02-07 13:15:00,
2013-02-07 07:20:00,36.9,25.5,29.09,South,177,0.0,0.0,63,0.00,,,0.00,VWS V14.01,2013-02-07 13:20:00,
2013-02-07 07:25:00,36.9,25.5,29.09,South,177,0.0,0.0,63,0.00,,,0.00,VWS V14.01,2013-02-07 13:25:00,
2013-02-07 07:30:00,36.9,25.5,29.09,South,177,0.0,0.0,63,0.00,,,0.00,VWS V14.01,2013-02-07 13:30:00,
2013-02-07 07:35:00,37.0,26.0,29.09,SSE,160,0.0,0.0,64,0.00,,,0.00,VWS V14.01,2013-02-07 13:35:00,
2013-02-07 07:39:00,36.9,26.2,29.09,SSE,160,0.0,0.0,65,0.00,,,0.00,VWS V14.01,2013-02-07 13:39:00,
2013-02-07 07:44:00,36.9,26.2,29.09,SSE,160,0.0,0.0,65,0.00,,,0.00,VWS V14.01,2013-02-07 13:44:00,
2013-02-07 07:49:00,36.7,26.4,29.09,SSE,160,0.0,0.0,66,0.00,,,0.00,VWS V14.01,2013-02-07 13:49:00,
2013-02-07 07:54:00,36.7,26.4,29.09,SSE,160,0.0,0.0,66,0.00,,,0.00,VWS V14.01,2013-02-07 13:54:00,
2013-02-07 07:59:00,36.7,26.4,29.12,SSE,160,0.0,0.0,66,0.00,,,0.00,VWS V14.01,2013-02-07 13:59:00,
2013-02-07 08:04:00,36.7,27.1,29.12,SSE,160,0.0,0.0,68,0.00,,,0.00,VWS V14.01,2013-02-07 14:04:00,
2013-02-07 08:09:00,36.3,26.8,29.12,SSE,160,0.0,0.0,68,0.00,,,0.00,VWS V14.01,2013-02-07 14:09:00,
2013-02-07 08:14:00,35.8,26.6,29.12,SSE,160,0.0,0.0,69,0.00,,,0.00,VWS V14.01,2013-02-07 14:14:00,
2013-02-07 08:19:00,35.8,26.6,29.12,SSE,160,0.0,0.0,69,0.00,,,0.00,VWS V14.01,2013-02-07 14:19:00,
2013-02-07 08:24:00,35.6,27.1,29.12,SSE,160,0.0,0.0,71,0.00,,,0.00,VWS V14.01,2013-02-07 14:24:00,
2013-02-07 08:29:00,35.6,27.1,29.12,SSE,160,0.0,0.0,71,0.00,,,0.00,VWS V14.01,2013-02-07 14:29:00,
2013-02-07 08:34:00,35.6,27.1,29.12,SSE,160,0.0,0.0,71,0.00,,,0.00,VWS V14.01,2013-02-07 14:34:00,
2013-02-07 08:39:00,35.6,27.5,29.12,SSE,160,0.0,0.0,72,0.00,,,0.00,VWS V14.01,2013-02-07 14:39:00,
2013-02-07 08:44:00,35.4,27.3,29.15,SSE,160,0.0,0.0,72,0.00,,,0.00,VWS V14.01,2013-02-07 14:44:00,
2013-02-07 08:49:00,35.4,27.3,29.15,SSE,160,0.0,0.0,72,0.00,,,0.00,VWS V14.01,2013-02-07 14:49:00,
2013-02-07 08:54:00,35.4,27.3,29.15,SSE,160,0.0,0.0,72,0.12,,,0.12,VWS V14.01,2013-02-07 14:54:00,
2013-02-07 08:59:00,35.4,27.3,29.15,SSE,160,0.0,0.0,72,0.12,,,0.12,VWS V14.01,2013-02-07 14:59:00,
2013-02-07 09:04:00,35.4,27.6,29.15,SSE,160,0.0,0.0,73,0.12,,,0.12,VWS V14.01,2013-02-07 15:04:00,
2013-02-07 09:09:00,35.6,27.8,29.15,SSE,160,0.0,0.0,73,0.12,,,0.12,VWS V14.01,2013-02-07 15:09:00,
2013-02-07 09:14:00,35.8,28.3,29.15,SSE,160,0.0,0.0,74,0.12,,,0.12,VWS V14.01,2013-02-07 15:14:00,
2013-02-07 09:19:00,35.8,28.3,29.15,North,0,3.1,3.1,74,0.16,,,0.16,VWS V14.01,2013-02-07 15:19:00,
2013-02-07 09:24:00,35.8,28.6,29.15,North,9,0.0,0.0,75,0.16,,,0.16,VWS V14.01,2013-02-07 15:24:00,
2013-02-07 09:29:00,35.8,28.6,29.15,NNE,14,3.1,3.1,75,0.16,,,0.16,VWS V14.01,2013-02-07 15:29:00,
2013-02-07 09:34:00,35.8,29.0,29.15,NNE,14,3.1,3.1,76,0.16,,,0.16,VWS V14.01,2013-02-07 15:34:00,
2013-02-07 09:39:00,35.8,29.0,29.15,North,11,2.2,2.2,76,0.16,,,0.16,VWS V14.01,2013-02-07 15:39:00,
2013-02-07 09:44:00,35.8,29.3,29.15,North,4,4.0,4.0,77,0.16,,,0.16,VWS V14.01,2013-02-07 15:44:00,
2013-02-07 09:49:00,35.8,29.3,29.15,North,4,4.0,4.0,77,0.16,,,0.16,VWS V14.01,2013-02-07 15:49:00,
2013-02-07 09:54:00,35.8,29.3,29.15,North,9,2.7,2.7,77,0.16,,,0.16,VWS V14.01,2013-02-07 15:54:00,
2013-02-07 09:59:00,35.6,29.4,29.15,North,350,4.0,4.0,78,0.04,,,0.16,VWS V14.01,2013-02-07 15:59:00,
2013-02-07 10:04:00,35.6,29.4,29.15,NNE,18,3.6,4.0,78,0.04,,,0.16,VWS V14.01,2013-02-07 16:04:00,
2013-02-07 10:09:00,35.6,29.4,29.15,NNE,18,3.6,3.6,78,0.04,,,0.16,VWS V14.01,2013-02-07 16:09:00,
2013-02-07 10:14:00,35.6,29.4,29.15,North,9,3.1,3.1,78,0.04,,,0.16,VWS V14.01,2013-02-07 16:14:00,
2013-02-07 10:19:00,35.6,29.4,29.15,NNE,20,3.1,3.1,78,0.00,,,0.16,VWS V14.01,2013-02-07 16:19:00,
2013-02-07 10:24:00,35.2,29.4,29.15,NNE,20,3.1,3.1,79,0.00,,,0.16,VWS V14.01,2013-02-07 16:24:00,
2013-02-07 10:29:00,35.1,29.2,29.15,NNE,25,2.7,2.7,79,0.00,,,0.16,VWS V14.01,2013-02-07 16:29:00,
2013-02-07 10:34:00,35.1,29.2,29.15,NNE,20,3.1,3.1,79,0.00,,,0.16,VWS V14.01,2013-02-07 16:34:00,
2013-02-07 10:39:00,35.1,29.2,29.15,NNE,20,2.7,3.1,79,0.00,,,0.16,VWS V14.01,2013-02-07 16:39:00,
2013-02-07 10:44:00,35.1,29.2,29.18,NNE,20,2.7,2.7,79,0.00,,,0.16,VWS V14.01,2013-02-07 16:44:00,
2013-02-07 10:49:00,35.1,29.2,29.18,NNE,21,2.2,2.2,79,0.00,,,0.16,VWS V14.01,2013-02-07 16:49:00,
2013-02-07 10:54:00,35.1,29.2,29.18,NNE,22,2.7,2.7,79,0.00,,,0.16,VWS V14.01,2013-02-07 16:54:00,
2013-02-07 10:59:00,35.1,29.2,29.18,NNE,22,2.7,2.7,79,0.00,,,0.16,VWS V14.01,2013-02-07 16:59:00,
2013-02-07 11:04:00,35.2,29.4,29.18,NW,322,2.7,4.0,79,0.00,,,0.00,VWS V14.01,2013-02-07 17:04:00,
2013-02-07 11:09:00,35.2,29.4,29.18,NNW,339,2.7,2.7,79,0.00,,,0.16,VWS V14.01,2013-02-07 17:09:00,
2013-02-07 11:14:00,35.2,29.4,29.15,NNE,13,3.6,3.6,79,0.00,,,0.16,VWS V14.01,2013-02-07 17:14:00,
2013-02-07 11:19:00,35.2,29.4,29.15,NNE,13,3.6,3.6,79,0.00,,,0.16,VWS V14.01,2013-02-07 17:19:00,
2013-02-07 11:24:00,35.2,29.4,29.15,NW,305,4.9,4.9,79,0.00,,,0.16,VWS V14.01,2013-02-07 17:24:00,
2013-02-07 11:29:00,35.2,29.4,29.18,NW,305,4.9,4.9,79,0.00,,,0.16,VWS V14.01,2013-02-07 17:29:00,
2013-02-07 11:34:00,35.2,29.4,29.18,NW,305,4.9,4.9,79,0.00,,,0.16,VWS V14.01,2013-02-07 17:34:00,
2013-02-07 11:39:00,35.2,29.4,29.18,NNE,15,6.3,6.3,79,0.00,,,0.16,VWS V14.01,2013-02-07 17:39:00,
2013-02-07 11:44:00,35.2,29.4,29.18,NNE,15,6.3,6.3,79,0.00,,,0.16,VWS V14.01,2013-02-07 17:44:00,
2013-02-07 11:49:00,35.2,29.4,29.18,NNW,339,4.0,4.0,79,0.00,,,0.16,VWS V14.01,2013-02-07 17:49:00,
2013-02-07 11:54:00,35.2,29.4,29.18,NNW,339,4.0,4.0,79,0.00,,,0.16,VWS V14.01,2013-02-07 17:54:00,
2013-02-07 11:59:00,35.2,29.4,29.18,NNW,348,3.1,3.1,79,0.00,,,0.16,VWS V14.01,2013-02-07 17:59:00,
2013-02-07 12:04:00,35.2,29.4,29.18,East,90,96.0,96.0,79,0.00,,,0.16,VWS V14.01,2013-02-07 18:04:00,
2013-02-07 12:09:00,35.2,29.4,29.18,NW,319,2.7,2.7,79,0.00,,,0.16,VWS V14.01,2013-02-07 18:09:00,
2013-02-07 12:14:00,35.2,29.4,29.18,NW,313,7.6,7.6,79,0.00,,,0.16,VWS V14.01,2013-02-07 18:14:00,
2013-02-07 12:19:00,35.2,29.4,29.18,NW,313,7.6,7.6,79,0.00,,,0.16,VWS V14.01,2013-02-07 18:19:00,
2013-02-07 12:24:00,35.2,29.4,29.18,NW,315,3.6,3.6,79,0.00,,,0.16,VWS V14.01,2013-02-07 18:24:00,
2013-02-07 12:29:00,35.2,29.4,29.18,NW,315,3.6,3.6,79,0.00,,,0.16,VWS V14.01,2013-02-07 18:29:00,
2013-02-07 12:34:00,35.2,29.4,29.18,North,4,3.1,3.1,79,0.00,,,0.16,VWS V14.01,2013-02-07 18:34:00,
2013-02-07 12:39:00,35.2,29.4,29.18,North,4,3.1,3.1,79,0.00,,,0.16,VWS V14.01,2013-02-07 18:39:00,
2013-02-07 12:44:00,35.2,29.4,29.18,NNW,342,5.4,5.4,79,0.00,,,0.16,VWS V14.01,2013-02-07 18:44:00,
2013-02-07 12:49:00,35.2,29.4,29.18,NNW,342,5.4,5.4,79,0.00,,,0.16,VWS V14.01,2013-02-07 18:49:00,
2013-02-07 12:54:00,35.2,29.4,29.18,NE,50,8.3,8.3,79,0.00,,,0.16,VWS V14.01,2013-02-07 18:54:00,
2013-02-07 12:59:00,35.2,29.4,29.18,NE,50,8.3,8.3,79,0.00,,,0.16,VWS V14.01,2013-02-07 18:59:00,
2013-02-07 13:04:00,33.1,27.0,29.18,North,5,2.2,2.2,78,0.00,,,0.16,VWS V14.01,2013-02-07 19:04:00,
2013-02-07 13:09:00,33.1,27.0,29.18,North,5,2.2,2.2,78,0.00,,,0.16,VWS V14.01,2013-02-07 19:09:00,
2013-02-07 13:14:00,33.1,27.0,29.18,NNE,22,3.6,3.6,78,0.00,,,0.16,VWS V14.01,2013-02-07 19:14:00,
2013-02-07 13:19:00,33.1,27.0,29.18,NNE,22,3.6,3.6,78,0.00,,,0.16,VWS V14.01,2013-02-07 19:19:00,
2013-02-07 13:24:00,33.1,27.0,29.18,NNE,17,5.8,5.8,78,0.00,,,0.16,VWS V14.01,2013-02-07 19:24:00,
2013-02-07 13:29:00,33.1,27.0,29.18,NNE,17,5.8,5.8,78,0.00,,,0.16,VWS V14.01,2013-02-07 19:29:00,
2013-02-07 13:34:00,33.1,27.0,29.18,North,353,5.4,5.4,78,0.00,,,0.16,VWS V14.01,2013-02-07 19:34:00,
2013-02-07 13:39:00,33.1,27.0,29.18,North,353,5.4,5.4,78,0.00,,,0.16,VWS V14.01,2013-02-07 19:39:00,
2013-02-07 13:44:00,33.1,27.0,29.18,North,353,5.4,5.4,78,0.00,,,0.16,VWS V14.01,2013-02-07 19:44:00,
2013-02-07 13:49:00,32.7,24.7,29.18,North,353,5.4,5.4,72,0.00,,,0.16,VWS V14.01,2013-02-07 19:49:00,
2013-02-07 13:54:00,32.5,24.5,29.18,North,357,3.1,3.1,72,0.00,,,0.16,VWS V14.01,2013-02-07 19:54:00,
2013-02-07 13:59:00,32.5,24.5,29.18,North,357,3.1,3.1,72,0.00,,,0.16,VWS V14.01,2013-02-07 19:59:00,
2013-02-07 14:04:00,32.5,24.5,29.18,NW,320,0.0,0.0,72,0.00,,,0.16,VWS V14.01,2013-02-07 20:04:00,
2013-02-07 14:09:00,32.5,24.5,29.18,NW,320,0.0,0.0,72,0.00,,,0.16,VWS V14.01,2013-02-07 20:09:00,
2013-02-07 14:14:00,32.4,23.7,29.18,NW,319,0.0,0.0,70,0.00,,,0.16,VWS V14.01,2013-02-07 20:14:00,
2013-02-07 14:19:00,32.4,23.7,29.18,NW,318,0.0,0.0,70,0.00,,,0.16,VWS V14.01,2013-02-07 20:19:00,
2013-02-07 14:24:00,32.2,23.2,29.18,North,2,0.0,0.0,69,0.00,,,0.16,VWS V14.01,2013-02-07 20:24:00,
2013-02-07 14:29:00,32.2,23.2,29.18,North,0,0.0,0.0,69,0.00,,,0.16,VWS V14.01,2013-02-07 20:29:00,
2013-02-07 14:34:00,32.2,23.2,29.18,NNE,32,0.0,0.0,69,0.00,,,0.16,VWS V14.01,2013-02-07 20:34:00,
2013-02-07 14:39:00,32.0,23.0,29.18,North,5,0.0,0.0,69,0.00,,,0.16,VWS V14.01,2013-02-07 20:39:00,
2013-02-07 14:44:00,32.0,23.0,29.18,NNE,18,0.0,0.0,69,0.00,,,0.16,VWS V14.01,2013-02-07 20:44:00,
2013-02-07 14:49:00,31.8,22.5,29.18,NNW,344,0.0,0.0,68,0.00,,,0.16,VWS V14.01,2013-02-07 20:49:00,
2013-02-07 14:54:00,31.8,22.5,29.18,NNE,18,0.0,0.0,68,0.00,,,0.16,VWS V14.01,2013-02-07 20:54:00,
2013-02-07 14:59:00,31.8,22.5,29.18,North,7,0.0,0.0,68,0.00,,,0.16,VWS V14.01,2013-02-07 20:59:00,
2013-02-07 15:04:00,31.8,22.5,29.18,NNW,343,0.0,0.0,68,0.00,,,0.16,VWS V14.01,2013-02-07 21:04:00,
2013-02-07 15:09:00,31.8,22.5,29.18,NNW,343,0.0,0.0,68,0.00,,,0.16,VWS V14.01,2013-02-07 21:09:00,
2013-02-07 15:14:00,31.8,22.5,29.18,NNE,16,0.0,0.0,68,0.00,,,0.16,VWS V14.01,2013-02-07 21:14:00,
2013-02-07 15:19:00,31.6,22.0,29.18,NNE,16,0.0,0.0,67,0.00,,,0.16,VWS V14.01,2013-02-07 21:19:00,
2013-02-07 15:24:00,31.6,22.0,29.18,NW,312,0.0,0.0,67,0.00,,,0.16,VWS V14.01,2013-02-07 21:24:00,
2013-02-07 15:29:00,31.6,22.0,29.18,North,353,0.0,0.0,67,0.00,,,0.16,VWS V14.01,2013-02-07 21:29:00,
2013-02-07 15:34:00,31.6,22.0,29.21,NNW,345,0.0,0.0,67,0.00,,,0.16,VWS V14.01,2013-02-07 21:34:00,
2013-02-07 15:39:00,31.6,22.0,29.21,NNW,345,0.0,0.0,67,0.00,,,0.16,VWS V14.01,2013-02-07 21:39:00,
2013-02-07 15:44:00,31.6,22.0,29.21,North,353,0.0,0.0,67,0.00,,,0.16,VWS V14.01,2013-02-07 21:44:00,
2013-02-07 15:49:00,31.1,21.4,29.21,North,11,0.0,0.0,67,0.00,,,0.16,VWS V14.01,2013-02-07 21:49:00,
2013-02-07 15:54:00,31.1,21.4,29.21,North,357,0.0,0.0,67,0.00,,,0.16,VWS V14.01,2013-02-07 21:54:00,
2013-02-07 15:59:00,31.1,21.4,29.23,North,349,0.0,0.0,67,0.00,,,0.16,VWS V14.01,2013-02-07 21:59:00,
2013-02-07 16:04:00,31.1,21.4,29.23,NNE,20,0.0,0.0,67,0.00,,,0.16,VWS V14.01,2013-02-07 22:04:00,
2013-02-07 16:09:00,31.1,21.4,29.23,NNW,330,0.0,0.0,67,0.00,,,0.16,VWS V14.01,2013-02-07 22:09:00,
2013-02-07 16:14:00,31.1,21.4,29.23,SW,225,0.0,0.0,67,0.00,,,0.16,VWS V14.01,2013-02-07 22:14:00,
2013-02-07 16:19:00,31.1,21.4,29.23,NE,37,0.0,0.0,67,0.00,,,0.16,VWS V14.01,2013-02-07 22:19:00,
2013-02-07 16:24:00,31.1,21.4,29.23,NE,37,0.0,0.0,67,0.00,,,0.16,VWS V14.01,2013-02-07 22:24:00,
2013-02-07 16:29:00,30.7,21.1,29.23,NNW,348,0.0,0.0,67,0.00,,,0.16,VWS V14.01,2013-02-07 22:29:00,
2013-02-07 16:34:00,30.7,21.1,29.23,NNE,16,0.0,0.0,67,0.00,,,0.16,VWS V14.01,2013-02-07 22:34:00,
2013-02-07 16:39:00,30.7,21.1,29.23,NNW,328,0.0,0.0,67,0.00,,,0.16,VWS V14.01,2013-02-07 22:39:00,
2013-02-07 16:44:00,30.7,21.1,29.23,NNW,346,0.0,0.0,67,0.00,,,0.16,VWS V14.01,2013-02-07 22:44:00,
2013-02-07 16:49:00,30.6,20.6,29.23,North,5,0.0,0.0,66,0.00,,,0.16,VWS V14.01,2013-02-07 22:49:00,
2013-02-07 16:54:00,30.6,20.2,29.23,North,357,0.0,0.0,65,0.00,,,0.00,VWS V14.01,2013-02-07 22:54:00,
2013-02-07 16:59:00,30.6,20.2,29.23,North,357,0.0,0.0,65,0.00,,,0.16,VWS V14.01,2013-02-07 22:59:00,
2013-02-07 17:04:00,30.6,20.2,29.23,North,5,0.0,0.0,65,0.00,,,0.16,VWS V14.01,2013-02-07 23:04:00,
2013-02-07 17:09:00,30.4,19.7,29.23,North,5,0.0,0.0,64,0.00,,,0.16,VWS V14.01,2013-02-07 23:09:00,
2013-02-07 17:14:00,30.2,19.5,29.23,NNE,13,0.0,0.0,64,0.00,,,0.16,VWS V14.01,2013-02-07 23:14:00,
2013-02-07 17:19:00,30.2,19.5,29.26,NNE,13,0.0,0.0,64,0.00,,,0.16,VWS V14.01,2013-02-07 23:19:00,
2013-02-07 17:23:00,30.2,19.5,29.26,NNE,19,0.0,0.0,64,0.00,,,0.16,VWS V14.01,2013-02-07 23:23:00,
2013-02-07 17:28:00,30.2,19.5,29.26,NNE,19,0.0,0.0,64,0.00,,,0.16,VWS V14.01,2013-02-07 23:28:00,
2013-02-07 17:33:00,30.2,19.1,29.26,NW,320,0.0,0.0,63,0.00,,,0.16,VWS V14.01,2013-02-07 23:33:00,
2013-02-07 17:38:00,30.2,19.1,29.26,NW,320,0.0,0.0,63,0.00,,,0.16,VWS V14.01,2013-02-07 23:38:00,
2013-02-07 17:43:00,30.2,18.8,29.26,North,0,0.0,0.0,62,0.00,,,0.16,VWS V14.01,2013-02-07 23:43:00,
2013-02-07 17:48:00,30.2,18.8,29.26,North,0,0.0,0.0,62,0.00,,,0.16,VWS V14.01,2013-02-07 23:48:00,
2013-02-07 17:53:00,30.2,18.8,29.26,North,6,0.0,0.0,62,0.00,,,0.16,VWS V14.01,2013-02-07 23:53:00,
2013-02-07 17:58:00,30.2,18.8,29.26,NNE,22,0.0,0.0,62,0.00,,,0.16,VWS V14.01,2013-02-07 23:58:00,
2013-02-07 18:03:00,30.2,18.8,29.26,NW,319,0.0,0.0,62,0.00,,,0.16,VWS V14.01,2013-02-08 00:03:00,
2013-02-07 18:08:00,30.2,18.8,29.26,NNW,341,0.0,0.0,62,0.00,,,0.16,VWS V14.01,2013-02-08 00:08:00,
2013-02-07 18:13:00,30.2,18.8,29.26,North,357,0.0,0.0,62,0.00,,,0.16,VWS V14.01,2013-02-08 00:13:00,
2013-02-07 18:18:00,30.2,18.8,29.26,North,357,0.0,0.0,62,0.00,,,0.16,VWS V14.01,2013-02-08 00:18:00,
2013-02-07 18:23:00,30.0,18.2,29.26,North,353,0.0,0.0,61,0.00,,,0.16,VWS V14.01,2013-02-08 00:23:00,
2013-02-07 18:28:00,30.0,18.2,29.26,North,0,0.0,0.0,61,0.00,,,0.16,VWS V14.01,2013-02-08 00:28:00,
2013-02-07 18:33:00,30.0,18.2,29.29,North,353,0.0,0.0,61,0.00,,,0.16,VWS V14.01,2013-02-08 00:33:00,
2013-02-07 18:38:00,30.0,18.2,29.29,North,357,0.0,0.0,61,0.00,,,0.16,VWS V14.01,2013-02-08 00:38:00,
2013-02-07 18:43:00,30.0,18.2,29.29,NNW,339,0.0,0.0,61,0.00,,,0.16,VWS V14.01,2013-02-08 00:43:00,
2013-02-07 18:48:00,30.0,18.2,29.29,NNW,337,0.0,0.0,61,0.00,,,0.16,VWS V14.01,2013-02-08 00:48:00,
2013-02-07 18:53:00,30.0,18.2,29.29,North,7,0.0,0.0,61,0.00,,,0.16,VWS V14.01,2013-02-08 00:53:00,
2013-02-07 18:58:00,30.0,18.2,29.29,NNE,16,0.0,0.0,61,0.00,,,0.16,VWS V14.01,2013-02-08 00:58:00,
2013-02-07 19:03:00,29.8,17.7,29.29,North,6,0.0,0.0,60,0.00,,,0.16,VWS V14.01,2013-02-08 01:03:00,
2013-02-07 19:08:00,29.8,17.7,29.29,NNE,16,0.0,0.0,60,0.00,,,0.16,VWS V14.01,2013-02-08 01:08:00,
2013-02-07 19:13:00,29.8,17.7,29.29,North,3,0.0,0.0,60,0.00,,,0.16,VWS V14.01,2013-02-08 01:13:00,
2013-02-07 19:18:00,29.8,17.7,29.29,North,2,0.0,0.0,60,0.00,,,0.16,VWS V14.01,2013-02-08 01:18:00,
2013-02-07 19:23:00,29.8,17.7,29.29,NNW,345,0.0,0.0,60,0.00,,,0.16,VWS V14.01,2013-02-08 01:23:00,
2013-02-07 19:28:00,29.8,17.7,29.32,NNW,331,0.0,0.0,60,0.00,,,0.16,VWS V14.01,2013-02-08 01:28:00,
2013-02-07 19:33:00,29.8,17.7,29.32,North,6,0.0,0.0,60,0.00,,,0.16,VWS V14.01,2013-02-08 01:33:00,
2013-02-07 19:38:00,29.8,17.7,29.32,North,0,0.0,0.0,60,0.00,,,0.16,VWS V14.01,2013-02-08 01:38:00,
2013-02-07 19:43:00,29.8,17.7,29.32,North,11,0.0,0.0,60,0.00,,,0.16,VWS V14.01,2013-02-08 01:43:00,
2013-02-07 19:48:00,29.8,17.7,29.32,North,2,0.0,0.0,60,0.00,,,0.16,VWS V14.01,2013-02-08 01:48:00,
2013-02-07 19:53:00,29.8,17.7,29.32,North,353,0.0,0.0,60,0.00,,,0.16,VWS V14.01,2013-02-08 01:53:00,
2013-02-07 19:58:00,29.8,17.7,29.32,North,5,0.0,0.0,60,0.00,,,0.16,VWS V14.01,2013-02-08 01:58:00,
2013-02-07 20:03:00,29.8,17.7,29.32,NNE,15,0.0,0.0,60,0.00,,,0.16,VWS V14.01,2013-02-08 02:03:00,
2013-02-07 20:08:00,29.8,17.7,29.32,NNE,15,0.0,0.0,60,0.00,,,0.16,VWS V14.01,2013-02-08 02:08:00,
2013-02-07 20:13:00,29.8,17.7,29.32,North,357,0.0,0.0,60,0.00,,,0.16,VWS V14.01,2013-02-08 02:13:00,
2013-02-07 20:18:00,29.8,17.7,29.32,North,3,0.0,0.0,60,0.00,,,0.16,VWS V14.01,2013-02-08 02:18:00,
2013-02-07 20:23:00,29.8,17.7,29.32,NNE,24,0.0,0.0,60,0.00,,,0.16,VWS V14.01,2013-02-08 02:23:00,
2013-02-07 20:28:00,29.7,15.9,29.32,North,10,0.0,0.0,56,0.00,,,0.16,VWS V14.01,2013-02-08 02:28:00,
2013-02-07 20:33:00,29.7,15.9,29.32,NNE,18,0.0,0.0,56,0.00,,,0.16,VWS V14.01,2013-02-08 02:33:00,
2013-02-07 20:38:00,29.7,15.9,29.32,North,6,0.0,0.0,56,0.00,,,0.16,VWS V14.01,2013-02-08 02:38:00,
2013-02-07 20:43:00,29.7,15.9,29.32,North,350,0.0,0.0,56,0.00,,,0.16,VWS V14.01,2013-02-08 02:43:00,
2013-02-07 20:48:00,29.7,15.9,29.32,NNE,17,0.0,0.0,56,0.00,,,0.16,VWS V14.01,2013-02-08 02:48:00,
2013-02-07 20:53:00,29.7,15.9,29.32,North,8,0.0,0.0,56,0.00,,,0.16,VWS V14.01,2013-02-08 02:53:00,
2013-02-07 20:58:00,29.7,15.9,29.32,NNE,22,0.0,0.0,56,0.00,,,0.16,VWS V14.01,2013-02-08 02:58:00,
2013-02-07 21:03:00,29.7,15.9,29.32,NNE,20,0.0,0.0,56,0.00,,,0.16,VWS V14.01,2013-02-08 03:03:00,
2013-02-07 21:08:00,29.7,15.9,29.32,NNE,30,0.0,0.0,56,0.00,,,0.16,VWS V14.01,2013-02-08 03:08:00,
2013-02-07 21:13:00,29.7,15.9,29.32,North,349,0.0,0.0,56,0.00,,,0.16,VWS V14.01,2013-02-08 03:13:00,
2013-02-07 21:18:00,29.7,15.9,29.32,NNE,18,0.0,0.0,56,0.00,,,0.16,VWS V14.01,2013-02-08 03:18:00,
2013-02-07 21:23:00,29.7,15.9,29.32,North,0,0.0,0.0,56,0.00,,,0.00,VWS V14.01,2013-02-08 03:23:00,
2013-02-07 21:28:00,29.7,15.9,29.32,NNE,20,0.0,0.0,56,0.00,,,0.16,VWS V14.01,2013-02-08 03:28:00,
2013-02-07 21:33:00,29.7,15.9,29.32,NE,40,0.0,0.0,56,0.00,,,0.16,VWS V14.01,2013-02-08 03:33:00,
2013-02-07 21:38:00,29.7,15.9,29.32,North,8,0.0,0.0,56,0.00,,,0.16,VWS V14.01,2013-02-08 03:38:00,
2013-02-07 21:43:00,29.7,15.9,29.32,NNW,338,0.0,0.0,56,0.00,,,0.16,VWS V14.01,2013-02-08 03:43:00,
2013-02-07 21:48:00,29.7,15.9,29.32,North,0,0.0,0.0,56,0.00,,,0.16,VWS V14.01,2013-02-08 03:48:00,
2013-02-07 21:53:00,29.7,15.9,29.32,NE,50,0.0,0.0,56,0.00,,,0.16,VWS V14.01,2013-02-08 03:53:00,
2013-02-07 21:58:00,29.7,15.9,29.32,North,350,0.0,0.0,56,0.00,,,0.16,VWS V14.01,2013-02-08 03:58:00,
2013-02-07 22:03:00,29.7,15.9,29.32,North,10,0.0,0.0,56,0.00,,,0.16,VWS V14.01,2013-02-08 04:03:00,
2013-02-07 22:08:00,29.7,15.9,29.32,North,6,0.0,0.0,56,0.00,,,0.16,VWS V14.01,2013-02-08 04:08:00,
2013-02-07 22:13:00,29.7,15.9,29.32,NNW,345,0.0,0.0,56,0.00,,,0.16,VWS V14.01,2013-02-08 04:13:00,
2013-02-07 22:18:00,29.7,15.9,29.32,North,350,0.0,0.0,56,0.00,,,0.16,VWS V14.01,2013-02-08 04:18:00,
2013-02-07 22:23:00,29.7,15.9,29.32,North,0,0.0,0.0,56,0.00,,,0.16,VWS V14.01,2013-02-08 04:23:00,
2013-02-07 22:28:00,29.7,15.9,29.32,North,7,0.0,0.0,56,0.00,,,0.16,VWS V14.01,2013-02-08 04:28:00,
2013-02-07 22:33:00,29.7,15.9,29.32,North,6,0.0,0.0,56,0.00,,,0.16,VWS V14.01,2013-02-08 04:33:00,
2013-02-07 22:38:00,29.7,15.9,29.32,North,0,0.0,0.0,56,0.00,,,0.16,VWS V14.01,2013-02-08 04:38:00,
2013-02-07 22:43:00,29.7,15.9,29.32,NNE,12,0.0,0.0,56,0.00,,,0.16,VWS V14.01,2013-02-08 04:43:00,
2013-02-07 22:48:00,29.7,15.9,29.32,North,0,0.0,0.0,56,0.00,,,0.16,VWS V14.01,2013-02-08 04:48:00,
2013-02-07 22:53:00,28.6,15.7,29.32,North,0,0.0,0.0,58,0.00,,,0.16,VWS V14.01,2013-02-08 04:53:00,
2013-02-07 22:58:00,28.6,15.7,29.32,NNE,28,0.0,0.0,58,0.00,,,0.16,VWS V14.01,2013-02-08 04:58:00,
2013-02-07 23:00:00,28.4,15.9,29.32,NNE,28,0.0,0.0,59,0.00,,,0.16,VWS V14.01,2013-02-08 05:00:00,
2013-02-07 23:01:00,28.4,15.9,29.32,NNE,28,0.0,0.0,59,0.00,,,0.00,VWS V14.01,2013-02-08 05:01:00,
2013-02-07 23:06:00,28.4,15.9,29.32,NNE,24,0.0,0.0,59,0.00,,,0.16,VWS V14.01,2013-02-08 05:06:00,
2013-02-07 23:11:00,28.4,15.9,29.32,NNE,24,0.0,0.0,59,0.00,,,0.16,VWS V14.01,2013-02-08 05:11:00,
2013-02-07 23:16:00,28.4,15.9,29.32,NNE,24,0.0,0.0,59,0.00,,,0.16,VWS V14.01,2013-02-08 05:16:00,
2013-02-07 23:21:00,28.2,15.8,29.35,NNE,28,0.0,0.0,59,0.00,,,0.16,VWS V14.01,2013-02-08 05:21:00,
2013-02-07 23:26:00,28.2,15.8,29.35,NNE,28,0.0,0.0,59,0.00,,,0.16,VWS V14.01,2013-02-08 05:26:00,
2013-02-07 23:31:00,28.2,15.8,29.35,NNE,28,0.0,0.0,59,0.00,,,0.16,VWS V14.01,2013-02-08 05:31:00,
2013-02-07 23:36:00,28.0,15.6,29.38,NNE,28,0.0,0.0,59,0.00,,,0.16,VWS V14.01,2013-02-08 05:36:00,
2013-02-07 23:41:00,28.0,15.6,29.38,NNE,28,0.0,0.0,59,0.00,,,0.16,VWS V14.01,2013-02-08 05:41:00,
2013-02-07 23:46:00,28.0,15.6,29.38,NNE,28,0.0,0.0,59,0.00,,,0.16,VWS V14.01,2013-02-08 05:46:00,
2013-02-07 23:51:00,28.2,15.4,29.38,NNE,28,0.0,0.0,58,0.00,,,0.16,VWS V14.01,2013-02-08 05:51:00,
2013-02-07 23:56:00,28.2,15.4,29.38,NNE,28,0.0,0.0,58,0.00,,,0.16,VWS V14.01,2013-02-08 05:56:00,